• In Uzbekistan
  • List of Countries
  • For 7 days
  • Water Temperature
  • Satellite Maps
  • Weather Map
  • Weather Widgets
  • user-avatar
    Login

    Hourly Weather Bregenz

    Today, 8 December, Thursday

    Time Temperature Precipitation Wind Pressure Humidity
    00:00 -5°C° 0 mm 2 mps 653 mmHg 63%
    01:00 -5°C° 0 mm 2 mps 653 mmHg 62%
    02:00 -5°C° 0 mm 2 mps 653 mmHg 61%
    03:00 -5°C° 0 mm 2 mps 653 mmHg 60%
    04:00 -4°C° 0 mm 2 mps 653 mmHg 59%
    05:00 -4°C° 0 mm 2 mps 653 mmHg 57%
    06:00 -4°C° 0 mm 2 mps 653 mmHg 55%
    07:00 -4°C° 0 mm 2 mps 653 mmHg 53%
    08:00 -3°C° 0 mm 2 mps 653 mmHg 51%
    09:00 -1°C° 0 mm 2 mps 654 mmHg 49%
    10:00 +1°C° 0 mm 2 mps 655 mmHg 47%
    11:00 +4°C° 0 mm 1 mps 655 mmHg 48%
    12:00 +5°C° 0 mm 1 mps 655 mmHg 48%
    13:00 +7°C° 0 mm 1 mps 655 mmHg 49%
    14:00 +4°C° 0 mm 1 mps 655 mmHg 51%
    15:00 +2°C° 0 mm 1 mps 654 mmHg 54%
    16:00 0°C° 0 mm 1 mps 653 mmHg 56%
    17:00 -1°C° 0 mm 1 mps 653 mmHg 58%
    18:00 -1°C° 0 mm 1 mps 653 mmHg 61%
    19:00 -2°C° 0 mm 1 mps 653 mmHg 63%
    20:00 -2°C° 0 mm 1 mps 653 mmHg 61%
    21:00 -2°C° 0 mm 1 mps 653 mmHg 58%
    22:00 -2°C° 0 mm 1 mps 653 mmHg 55%
    23:00 -2°C° 0 mm 1 mps 653 mmHg 54%

    Tomorrow, 9 December, Friday

    Time Temperature Precipitation Wind Pressure Humidity
    00:00 -2°C° 0 mm 1 mps 653 mmHg 52%
    01:00 -2°C° 0 mm 1 mps 653 mmHg 51%
    02:00 -2°C° 0 mm 1 mps 653 mmHg 49%
    03:00 -2°C° 0 mm 1 mps 653 mmHg 46%
    04:00 -2°C° 0 mm 1 mps 652 mmHg 44%
    05:00 -2°C° 0 mm 1 mps 652 mmHg 44%
    06:00 -2°C° 0 mm 1 mps 652 mmHg 45%
    07:00 -3°C° 0 mm 1 mps 652 mmHg 46%
    08:00 -1°C° 0 mm 1 mps 653 mmHg 42%
    09:00 +1°C° 0 mm 1 mps 653 mmHg 38%
    10:00 +3°C° 0 mm 1 mps 654 mmHg 35%
    11:00 +4°C° 0 mm 1 mps 654 mmHg 37%
    12:00 +5°C° 0 mm 0 mps 654 mmHg 40%
    13:00 +6°C° 0 mm 0 mps 654 mmHg 42%
    14:00 +4°C° 0 mm 0 mps 653 mmHg 41%
    15:00 +1°C° 0 mm 0 mps 652 mmHg 40%
    16:00 -1°C° 0 mm 0 mps 651 mmHg 39%
    17:00 -2°C° 0 mm 0 mps 651 mmHg 43%
    18:00 -2°C° 0 mm 0 mps 651 mmHg 47%
    19:00 -3°C° 0 mm 0 mps 651 mmHg 51%
    20:00 -1°C° 0 mm 1 mps 651 mmHg 49%
    21:00 -1°C° 0 mm 1 mps 651 mmHg 48%
    22:00 -1°C° 0 mm 1 mps 651 mmHg 46%
    23:00 -1°C° 0 mm 1 mps 651 mmHg 44%

    Day after tomorrow, 10 December, Saturday

    Time Temperature Precipitation Wind Pressure Humidity
    00:00 -1°C° 0 mm 1 mps 650 mmHg 43%
    01:00 -1°C° 0 mm 1 mps 650 mmHg 42%
    02:00 -1°C° 0 mm 1 mps 650 mmHg 40%
    03:00 -1°C° 0 mm 1 mps 650 mmHg 38%
    04:00 -1°C° 0 mm 1 mps 649 mmHg 36%
    05:00 -1°C° 0 mm 1 mps 649 mmHg 39%
    06:00 -1°C° 0 mm 1 mps 649 mmHg 43%
    07:00 -2°C° 0 mm 1 mps 649 mmHg 47%
    08:00 0°C° 0 mm 1 mps 650 mmHg 43%
    09:00 +2°C° 0 mm 1 mps 650 mmHg 39%
    10:00 +3°C° 0 mm 1 mps 651 mmHg 35%
    11:00 +5°C° 0 mm 1 mps 651 mmHg 37%
    12:00 +5°C° 0 mm 0 mps 651 mmHg 39%
    13:00 +7°C° 0 mm 0 mps 651 mmHg 41%
    14:00 +4°C° 0 mm 0 mps 650 mmHg 40%
    15:00 +2°C° 0 mm 0 mps 650 mmHg 38%
    16:00 -1°C° 0 mm 0 mps 649 mmHg 37%
    17:00 -1°C° 0 mm 0 mps 648 mmHg 40%
    18:00 -2°C° 0 mm 0 mps 648 mmHg 43%
    19:00 -3°C° 0 mm 0 mps 648 mmHg 46%
    20:00 -3°C° 0 mm 0 mps 648 mmHg 45%
    21:00 -3°C° 0 mm 0 mps 647 mmHg 45%
    22:00 -2°C° 0 mm 1 mps 647 mmHg 44%
    23:00 -2°C° 0 mm 1 mps 647 mmHg 43%

    11 December, Sunday

    Time Temperature Precipitation Wind Pressure Humidity
    00:00 -2°C° 0 mm 1 mps 647 mmHg 42%
    01:00 -2°C° 0 mm 1 mps 646 mmHg 41%
    02:00 -2°C° 0 mm 1 mps 646 mmHg 38%
    03:00 -2°C° 0 mm 1 mps 646 mmHg 34%
    04:00 -2°C° 0 mm 1 mps 646 mmHg 31%
    05:00 -2°C° 0 mm 1 mps 646 mmHg 30%
    06:00 -1°C° 0 mm 1 mps 646 mmHg 30%
    07:00 -1°C° 0 mm 1 mps 646 mmHg 29%
    08:00 0°C° 0 mm 1 mps 646 mmHg 32%
    09:00 -1°C° 0 mm 2 mps 647 mmHg 34%
    10:00 +2°C° 0 mm 2 mps 647 mmHg 36%
    11:00 +3°C° 0 mm 2 mps 648 mmHg 40%
    12:00 +4°C° 0 mm 2 mps 648 mmHg 43%
    13:00 +5°C° 0 mm 2 mps 648 mmHg 47%
    14:00 +3°C° 0.1 mm 2 mps 647 mmHg 53%
    15:00 +2°C° 0.1 mm 2 mps 647 mmHg 59%
    16:00 -1°C° 0.1 mm 2 mps 647 mmHg 64%
    17:00 +1°C° 0.2 mm 1 mps 647 mmHg 69%
    18:00 +1°C° 0.2 mm 1 mps 647 mmHg 74%
    19:00 +1°C° 0.2 mm 1 mps 647 mmHg 79%
    20:00 0°C° 0.2 mm 1 mps 648 mmHg 82%
    21:00 0°C° 0.2 mm 1 mps 648 mmHg 86%
    22:00 0°C° 0.2 mm 1 mps 648 mmHg 90%
    23:00 0°C° 0 mm 1 mps 648 mmHg 92%

    12 December, Monday

    Time Temperature Precipitation Wind Pressure Humidity
    00:00 0°C° 0 mm 1 mps 648 mmHg 93%
    01:00 0°C° 0 mm 1 mps 648 mmHg 94%
    02:00 0°C° 0 mm 1 mps 648 mmHg 95%
    03:00 0°C° 0 mm 1 mps 648 mmHg 96%
    04:00 -1°C° 0 mm 1 mps 648 mmHg 97%
    05:00 -1°C° 0 mm 1 mps 648 mmHg 97%
    06:00 -1°C° 0 mm 1 mps 648 mmHg 97%
    07:00 -1°C° 0 mm 1 mps 648 mmHg 97%
    08:00 0°C° 0 mm 1 mps 648 mmHg 96%
    09:00 0°C° 0 mm 1 mps 648 mmHg 94%
    10:00 +1°C° 0 mm 1 mps 649 mmHg 93%
    11:00 +1°C° 0 mm 1 mps 649 mmHg 90%
    12:00 +2°C° 0 mm 1 mps 649 mmHg 87%
    13:00 +3°C° 0 mm 1 mps 648 mmHg 83%
    14:00 +2°C° 0 mm 1 mps 648 mmHg 87%
    15:00 +1°C° 0 mm 1 mps 648 mmHg 91%
    16:00 0°C° 0 mm 1 mps 648 mmHg 95%
    17:00 -1°C° 0 mm 1 mps 648 mmHg 96%
    18:00 -2°C° 0 mm 1 mps 648 mmHg 96%
    19:00 -2°C° 0 mm 1 mps 648 mmHg 96%
    20:00 -2°C° 0 mm 1 mps 648 mmHg 96%
    21:00 -3°C° 0 mm 1 mps 648 mmHg 95%
    22:00 -3°C° 0 mm 1 mps 648 mmHg 94%
    23:00 -3°C° 0 mm 1 mps 648 mmHg 92%

    13 December, Tuesday

    Time Temperature Precipitation Wind Pressure Humidity
    00:00 -3°C° 0 mm 1 mps 648 mmHg 90%
    01:00 -3°C° 0 mm 1 mps 648 mmHg 89%
    02:00 -3°C° 0 mm 1 mps 648 mmHg 88%
    03:00 -3°C° 0 mm 1 mps 648 mmHg 88%
    04:00 -3°C° 0 mm 1 mps 647 mmHg 88%
    05:00 -3°C° 0 mm 1 mps 647 mmHg 88%
    06:00 -3°C° 0 mm 1 mps 648 mmHg 87%
    07:00 -3°C° 0 mm 1 mps 648 mmHg 87%
    08:00 -2°C° 0 mm 1 mps 648 mmHg 84%
    09:00 -1°C° 0 mm 1 mps 648 mmHg 81%
    10:00 0°C° 0 mm 1 mps 649 mmHg 78%
    11:00 +1°C° 0 mm 1 mps 649 mmHg 77%
    12:00 +2°C° 0 mm 1 mps 649 mmHg 75%
    13:00 +3°C° 0 mm 1 mps 649 mmHg 74%
    14:00 +2°C° 0 mm 1 mps 648 mmHg 81%
    15:00 0°C° 0 mm 1 mps 648 mmHg 87%
    16:00 -1°C° 0 mm 1 mps 647 mmHg 94%
    17:00 -2°C° 0 mm 1 mps 647 mmHg 94%
    18:00 -2°C° 0 mm 1 mps 647 mmHg 94%
    19:00 -3°C° 0 mm 1 mps 647 mmHg 94%
    20:00 -3°C° 0 mm 1 mps 647 mmHg 93%
    21:00 -3°C° 0 mm 1 mps 647 mmHg 91%
    22:00 -3°C° 0 mm 1 mps 647 mmHg 90%
    23:00 -3°C° 0 mm 1 mps 647 mmHg 89%
    Show more